Lake Berryessa Weather Center

Moon Phase Calendar



Lake Berryessa Water Level
Online Cameras

 


      

Current Conditions in Redbud Park (historical)
4/14/2024 10:26:29 PM

50°F
Feels Like 48
Clouds
Humidity
62%
Pressure
30.15"
Wind
4.1 mph (NNW)
Dew Point
38°F
UV Index
0/10 (Low)
Visibility
6 mi

Hourly Forecast

Date & Time Sun, Apr 14
10:00 PM
Sun, Apr 14
11:00 PM
Mon, Apr 15
12:00 AM
Mon, Apr 15
1:00 AM
Mon, Apr 15
2:00 AM
Mon, Apr 15
3:00 AM
Mon, Apr 15
4:00 AM
Mon, Apr 15
5:00 AM
Mon, Apr 15
6:00 AM
Mon, Apr 15
7:00 AM
Mon, Apr 15
8:00 AM
Mon, Apr 15
9:00 AM
Mon, Apr 15
10:00 AM
Mon, Apr 15
11:00 AM
Mon, Apr 15
12:00 PM
Mon, Apr 15
1:00 PM
Mon, Apr 15
2:00 PM
Mon, Apr 15
3:00 PM
Mon, Apr 15
4:00 PM
Mon, Apr 15
5:00 PM
Mon, Apr 15
6:00 PM
Mon, Apr 15
7:00 PM
Mon, Apr 15
8:00 PM
Mon, Apr 15
9:00 PM
Mon, Apr 15
10:00 PM
Mon, Apr 15
11:00 PM
Tue, Apr 16
12:00 AM
Tue, Apr 16
1:00 AM
Tue, Apr 16
2:00 AM
Tue, Apr 16
3:00 AM
Tue, Apr 16
4:00 AM
Tue, Apr 16
5:00 AM
Tue, Apr 16
6:00 AM
Tue, Apr 16
7:00 AM
Tue, Apr 16
8:00 AM
Tue, Apr 16
9:00 AM
Tue, Apr 16
10:00 AM
Tue, Apr 16
11:00 AM
Tue, Apr 16
12:00 PM
Tue, Apr 16
1:00 PM
Tue, Apr 16
2:00 PM
Tue, Apr 16
3:00 PM
Tue, Apr 16
4:00 PM
Tue, Apr 16
5:00 PM
Tue, Apr 16
6:00 PM
Tue, Apr 16
7:00 PM
Tue, Apr 16
8:00 PM
Tue, Apr 16
9:00 PM
Condition
Clouds

Clouds

Clouds

Clouds

Clouds

Clouds

Clouds

Clouds

Clear

Clear

Clear

Clouds

Clouds

Clouds

Clouds

Clouds

Clouds

Clouds

Clouds

Clouds

Clear

Clear

Clear

Clear

Clear

Clear

Clear

Clear

Clear

Clear

Clear

Clear

Clear

Clear

Clouds

Clouds

Clouds

Clouds

Clear

Clear

Clear

Clouds

Clouds

Clouds

Clouds

Clouds

Clouds

Clouds
Temperature 50°F50°F49°F47°F46°F45°F45°F44°F44°F44°F48°F52°F56°F59°F62°F62°F63°F65°F66°F65°F64°F60°F54°F52°F51°F51°F50°F50°F50°F50°F50°F50°F49°F50°F55°F61°F65°F69°F73°F74°F75°F75°F74°F73°F71°F67°F61°F59°F
Feels Like 48°F48°F47°F45°F43°F43°F43°F42°F42°F42°F48°F51°F55°F58°F61°F61°F62°F64°F65°F64°F63°F60°F53°F51°F50°F50°F50°F50°F49°F49°F49°F49°F49°F49°F55°F60°F64°F69°F72°F73°F74°F74°F74°F73°F71°F67°F61°F59°F
Cloudiness 99%99%99%81%66%57%54%45%1%4%6%23%33%44%100%100%100%87%77%68%0%0%0%0%0%0%0%0%2%2%3%4%4%5%28%47%59%66%5%6%6%17%19%32%100%51%65%51%
Visibility 6 mi6 mi6 mi6 mi6 mi6 mi6 mi6 mi6 mi6 mi6 mi6 mi6 mi6 mi6 mi6 mi6 mi6 mi6 mi6 mi6 mi6 mi6 mi6 mi6 mi6 mi6 mi6 mi6 mi6 mi6 mi6 mi6 mi6 mi6 mi6 mi6 mi6 mi6 mi6 mi6 mi6 mi6 mi6 mi6 mi6 mi6 mi6 mi
Precipitation 18%0%0%0%0%0%0%0%0%0%0%0%0%0%0%0%0%0%0%0%0%0%0%0%0%0%0%0%0%0%0%0%0%0%0%0%0%0%0%0%0%0%0%0%0%0%0%0%
Humidity 62%69%76%84%90%97%96%96%96%96%91%83%74%66%61%60%58%57%56%58%63%80%90%92%93%94%94%94%94%93%91%91%91%90%82%72%63%57%52%49%49%49%52%56%68%82%92%93%
Dew Point 38°F40°F42°F43°F43°F43°F42°F41°F41°F41°F44°F46°F46°F46°F47°F46°F47°F47°F48°F49°F50°F52°F49°F48°F47°F47°F47°F47°F47°F46°F46°F46°F45°F46°F48°F50°F51°F52°F52°F52°F53°F53°F54°F55°F58°F59°F56°F55°F
Pressure 30.15"30.15"30.15"30.15"30.15"30.15"30.15"30.15"30.18"30.18"30.18"30.21"30.21"30.21"30.21"30.18"30.15"30.12"30.12"30.12"30.12"30.12"30.15"30.15"30.15"30.15"30.15"30.15"30.15"30.15"30.12"30.12"30.12"30.12"30.12"30.12"30.12"30.09"30.09"30.06"30.06"30.03"30"30.03"30.03"30.03"30.03"30.06"
Wind Speed 4.1 mph4.6 mph5 mph5 mph5 mph4.8 mph4.2 mph3.9 mph3.6 mph3.4 mph2.3 mph2 mph0.8 mph0.5 mph0.9 mph2.7 mph4.3 mph4.6 mph3 mph2.5 mph2.5 mph3.4 mph2.8 mph1.2 mph1.2 mph3.4 mph3.6 mph4.1 mph5 mph4.1 mph3.7 mph3.7 mph2.9 mph2.3 mph1.3 mph1.8 mph0.5 mph0.1 mph1 mph3 mph2.9 mph4 mph4.3 mph3.5 mph4.3 mph3.1 mph1.6 mph0.7 mph
Wind
Direction
344°
NNW
341°
NNW
342°
NNW
349°
N
341°
NNW
330°
NNW
335°
NNW
330°
NNW
331°
NNW
334°
NNW
340°
NNW
328°
NNW
342°
NNW
150°
SSE
177°
S
138°
SE
135°
SE
140°
SE
150°
SSE
159°
SSE
141°
SE
127°
SE
139°
SE
221°
SW
295°
WNW
286°
WNW
303°
WNW
306°
NW
318°
NW
333°
NNW
353°
N
347°
NNW
336°
NNW
352°
N
39°
NE
317°
NW

N
101°
E
153°
SSE
174°
S
194°
SSW
193°
SSW
185°
S
189°
S
157°
SSE
145°
SE
168°
SSE
215°
SW

Daily Forecast

Date High Low Precip. Humidity
Today
Apr 14

Rain
55 °F
43 °F
100%
71%
Monday
Apr 15

Clouds
66 °F
44 °F
0%
60%
Tuesday
Apr 16

Clear
75 °F
49 °F
0%
49%
Wednesday
Apr 17

Clouds
75 °F
55 °F
0%
58%
Thursday
Apr 18

Clouds
73 °F
52 °F
0%
57%
Friday
Apr 19

Clouds
70 °F
47 °F
0%
43%
Saturday
Apr 20

Clouds
69 °F
45 °F
0%
35%
Sunday
Apr 21

Clear
70 °F
45 °F
0%
37%
Monday
Apr 22

Clear
73 °F
42 °F
0%
38%
Tuesday
Apr 23

Clear
75 °F
51 °F
0%
22%
Wednesday
Apr 24

Clear
77 °F
51 °F
0%
28%
Thursday
Apr 25

Clouds
71 °F
46 °F
0%
43%
Friday
Apr 26

Clouds
67 °F
45 °F
0%
30%
Saturday
Apr 27

Clear
72 °F
43 °F
0%
26%
Sunday
Apr 28

Clouds
77 °F
50 °F
0%
34%
Monday
Apr 29

Clouds
74 °F
53 °F
0%
41%

Temperature 8-14 Day Outlook



Precipitation 8-14 Day Outlook




Quick Links
Lake Berryessa News
Lake Berryessa Photos
Lake Berryessa Videos




About Us
Contact Us
Site Map
Search Site
Advertise With Us
   
Berryessa.USLakes.info
THE LAKE BERRYESSA WEBSITE

Copyright 2024, Lakes Online
Privacy    |    Legal